Regional Weather Roundup
Issued by NWS Goodland, KS

Home | Current Version | Previous Version | Text Only | Print | Product List | Glossary On
Versions: 1 2 3 4 5 6 7 8 9 10 11 12 13 14 15 16 17 18 19 20 21 22 23 24 25 26 27 28 29 30 31 32 33 34 35 36 37 38 39 40 41 42 43 44 45 46 47 48 49 50
000
ASUS43 KGLD 292008
RWRGLD

GOODLAND FORECAST AREA HOURLY WEATHER ROUNDUP
NATIONAL WEATHER SERVICE GOODLAND KS
200 PM MDT FRI AUG 29 2014

...OFFICIAL OBSERVATIONS...

CITY           SKY/WX    TMP DP  RH WIND       PRES   REMARKS
GOODLAND KS    SUNNY     84  50  30 N21G26    29.97S
HILL CITY KS   SUNNY     84  55  36 N10       29.88F
IMPERIAL NEB   MOSUNNY   84  53  34 N14       29.94S
MCCOOK NEB     SUNNY     86  54  33 N12       29.89S
AKRON CO       SUNNY     81  49  32 NW10      30.04F
BURLINGTON CO  SUNNY     84  45  25 N15G24    30.01S
LIMON CO       SUNNY     80  42  25 NE14G20   30.10S
$$

...UNOFFICIAL OBSERVATIONS...

CITY           SKY/WX    TMP DP  RH WIND       PRES   REMARKS
COLBY KS       SUNNY     84  55  37 N8G20     29.95S
GOVE KS          N/A     84  32  15 CALM        N/A
NORTON KS      SUNNY     86  45  23 N7        29.86F
SHARON SPRINGS   N/A     84  51  31 NE15G24     N/A
WAKEENEY KS      N/A     83  49  30 MISG        N/A
KIT CARSON CO    N/A     84  45  25 N5G12       N/A
YUMA CO          N/A     81  45  27 NW5G15      N/A
$$


USA.gov is the U.S. government's official web portal to all federal, state and local government web resources and services.